Location: Newark
(55.1520°N, 2.9990°W)
Time: 19:22:09
(UTC+00:00)

N. Korean satellite - Visible Passes

Search period start: 20 September 2020 00:00
Search period end: 30 September 2020 00:00
Orbit: 455 x 503 km, 97.2° (Epoch: 20 September)

Date Brightness Start Highest point End Pass type
(mag) Time Alt. Az. Time Alt. Az. Time Alt. Az.
22 Sep 9.6 05:03:28 10° NE 05:06:25 22° E 05:09:19 10° SE visible
23 Sep 10.1 04:38:24 10° ENE 04:40:08 13° E 04:41:51 10° ESE visible
25 Sep 8.9 05:18:33 10° NNE 05:21:51 30° E 05:25:05 10° SSE visible
26 Sep 9.8 04:53:05 10° NE 04:55:37 18° E 04:58:07 10° SE visible
29 Sep 9.3 05:08:01 10° NE 05:11:03 24° E 05:14:01 10° SSE visible
